Weather History for Gadsden, AL

Change the Weather History Date:

Monday, June 25, 2012

  Actual Average Record
Temperature  
Mean Temperature 84 °F -  
Max Temperature 98 °F 83 °F 106 °F (1931)
Min Temperature 69 °F 65 °F 56 °F (1935)
Cooling Degree Days 18    
Growing Degree Days 34 (Base 50)    
Moisture  
Dew Point 65 °F    
Average Humidity 57    
Maximum Humidity 88    
Minimum Humidity 30    
Precipitation  
Precipitation 0.00 in - - ()
Sea Level Pressure  
Sea Level Pressure 29.80 in    
Wind  
Wind Speed 4 mph (NE)    
Max Wind Speed 14 mph    
Max Gust Speed 21 mph    
Visibility 10 miles    
Events      
Averages and records for this station are not official NWS values.
T = Trace of Precipitation, MM = Missing Value Source: NWS Daily Summary

Daily Weather History Graph

Daily Weather History Graph

Search for Another Location

Airport:

Trip Planner

Search our weather history database for the weather conditions in past years. The results will help you decide how hot, cold, wet, or windy it might be!

Date:

Astronomy

Jun. 25, 2012 Rise Set
Actual Time 5:34 AM CDT 7:59 PM CDT
Civil Twilight 5:05 AM CDT 8:28 PM CDT
Nautical Twilight 4:29 AM CDT 9:04 PM CDT
Astronomical Twilight 3:50 AM CDT 9:43 PM CDT
Moon 11:26 AM CDT (6/25) 11:46 PM CDT (6/25)
Length of Visible Light 15h 23m
Length of Day
14h 24m
Waxing Crescent, 34% of the Moon is Illuminated
Jun 25
Waxing Crescent
Jun 26
First Quarter
Jul 3
Full
Jul 10
Last Quarter
Jul 18
New

Hourly Weather History & Observations

Time (CDT) Temp. Heat Index Dew Point Humidity Pressure Visibility Wind Dir Wind Speed Gust Speed Precip Events Conditions
12:15 AM 73.4 °F - 69.8 °F 88% 29.87 in 10.0 mi Calm Calm - N/A   Clear
12:35 AM 73.4 °F - 69.8 °F 88% 29.87 in 10.0 mi Calm Calm - N/A   Clear
12:55 AM 73.4 °F - 69.8 °F 88% 29.87 in 10.0 mi Calm Calm - N/A   Clear
1:15 AM 75.2 °F - 68.0 °F 78% 29.87 in 10.0 mi SSE 5.8 mph - N/A   Clear
1:35 AM 77.0 °F - 66.2 °F 69% 29.86 in 10.0 mi SE 5.8 mph - N/A   Clear
1:55 AM 75.2 °F - 66.2 °F 73% 29.86 in 10.0 mi SSE 3.5 mph - N/A   Clear
2:15 AM 73.4 °F - 66.2 °F 78% 29.85 in 10.0 mi Calm Calm - N/A   Clear
2:35 AM 71.6 °F - 66.2 °F 83% 29.85 in 10.0 mi Calm Calm - N/A   Clear
2:55 AM 71.6 °F - 66.2 °F 83% 29.85 in 10.0 mi Calm Calm - N/A   Clear
3:15 AM 71.6 °F - 66.2 °F 83% 29.85 in 10.0 mi Calm Calm - N/A   Clear
3:35 AM 71.6 °F - 66.2 °F 83% 29.85 in 10.0 mi Calm Calm - N/A   Clear
3:55 AM 71.6 °F - 66.2 °F 83% 29.86 in 10.0 mi Calm Calm - N/A   Clear
4:15 AM 69.8 °F - 66.2 °F 88% 29.86 in 10.0 mi Calm Calm - N/A   Clear
4:35 AM 69.8 °F - 66.2 °F 88% 29.86 in 10.0 mi Calm Calm - N/A   Clear
4:55 AM 69.8 °F - 64.4 °F 83% 29.87 in 10.0 mi Calm Calm - N/A   Clear
5:15 AM 69.8 °F - 66.2 °F 88% 29.87 in 10.0 mi Calm Calm - N/A   Clear
5:35 AM 69.8 °F - 64.4 °F 83% 29.88 in 10.0 mi Calm Calm - N/A   Clear
5:55 AM 69.8 °F - 66.2 °F 88% 29.88 in 10.0 mi Calm Calm - N/A   Clear
6:15 AM 69.8 °F - 66.2 °F 88% 29.88 in 10.0 mi Calm Calm - N/A   Clear
6:35 AM 71.6 °F - 66.2 °F 83% 29.88 in 10.0 mi Calm Calm - N/A   Clear
6:55 AM 71.6 °F - 66.2 °F 83% 29.88 in 10.0 mi Calm Calm - N/A   Clear
7:15 AM 73.4 °F - 68.0 °F 83% 29.88 in 10.0 mi Calm Calm - N/A   Clear
7:35 AM 75.2 °F - 68.0 °F 78% 29.88 in 10.0 mi ENE 5.8 mph - N/A   Clear
7:55 AM 77.0 °F - 68.0 °F 74% 29.88 in 10.0 mi ENE 4.6 mph - N/A   Clear
8:15 AM 78.8 °F - 66.2 °F 65% 29.88 in 10.0 mi ENE 6.9 mph - N/A   Clear
8:35 AM 80.6 °F 82.7 °F 66.2 °F 61% 29.88 in 10.0 mi ENE 5.8 mph - N/A   Clear
8:55 AM 80.6 °F 82.7 °F 66.2 °F 61% 29.88 in 10.0 mi East 6.9 mph - N/A   Clear
9:15 AM 82.4 °F 84.6 °F 66.2 °F 58% 29.88 in 10.0 mi ENE 5.8 mph - N/A   Clear
9:35 AM 82.4 °F 84.6 °F 66.2 °F 58% 29.87 in 10.0 mi East 8.1 mph - N/A   Clear
9:55 AM 84.2 °F 86.6 °F 66.2 °F 55% 29.86 in 10.0 mi ENE 6.9 mph - N/A   Clear
10:15 AM 86.0 °F 88.2 °F 66.2 °F 51% 29.85 in 10.0 mi NE 9.2 mph - N/A   Clear
10:35 AM 87.8 °F 92.6 °F 69.8 °F 55% 29.84 in 10.0 mi East 10.4 mph - N/A   Clear
10:55 AM 87.8 °F 92.6 °F 69.8 °F 55% 29.83 in 10.0 mi East 6.9 mph - N/A   Clear
11:15 AM 89.6 °F 93.4 °F 68.0 °F 49% 29.83 in 10.0 mi North 6.9 mph - N/A   Clear
11:35 AM 91.4 °F 95.4 °F 68.0 °F 46% 29.82 in 10.0 mi ENE 9.2 mph - N/A   Clear
11:55 AM 93.2 °F 96.2 °F 66.2 °F 41% 29.81 in 10.0 mi NE 10.4 mph 19.6 mph N/A   Partly Cloudy
12:15 PM 93.2 °F 94.9 °F 64.4 °F 38% 29.80 in 10.0 mi ENE 12.7 mph 18.4 mph N/A   Partly Cloudy
12:35 PM 93.2 °F 94.9 °F 64.4 °F 38% 29.80 in 10.0 mi North 11.5 mph 16.1 mph N/A   Partly Cloudy
12:55 PM 95.0 °F 97.0 °F 64.4 °F 36% 29.79 in 10.0 mi NNE 11.5 mph 17.3 mph N/A   Partly Cloudy
1:15 PM 95.0 °F 98.5 °F 66.2 °F 39% 29.78 in 10.0 mi ENE 10.4 mph 20.7 mph N/A   Partly Cloudy
1:35 PM 95.0 °F 97.0 °F 64.4 °F 36% 29.77 in 10.0 mi East 4.6 mph - N/A   Partly Cloudy
1:55 PM 96.8 °F 98.0 °F 62.6 °F 32% 29.75 in 10.0 mi ENE 12.7 mph 18.4 mph N/A   Partly Cloudy
2:15 PM 95.0 °F 98.5 °F 66.2 °F 39% 29.75 in 10.0 mi East 10.4 mph 17.3 mph N/A   Partly Cloudy
2:35 PM 96.8 °F 99.0 °F 64.4 °F 34% 29.74 in 10.0 mi NE 12.7 mph 16.1 mph N/A   Partly Cloudy
2:55 PM 93.2 °F 94.1 °F 62.6 °F 36% 29.74 in 10.0 mi NE 12.7 mph 18.4 mph N/A   Partly Cloudy
3:15 PM 96.8 °F 99.0 °F 64.4 °F 34% 29.73 in 10.0 mi NNE 11.5 mph - N/A   Partly Cloudy
3:35 PM 96.8 °F 99.0 °F 64.4 °F 34% 29.72 in 10.0 mi NE 11.5 mph 18.4 mph N/A   Partly Cloudy
3:55 PM 95.0 °F 95.2 °F 60.8 °F 32% 29.72 in 10.0 mi NNE 10.4 mph 19.6 mph N/A   Partly Cloudy
4:15 PM 98.6 °F 100.0 °F 62.6 °F 30% 29.72 in 10.0 mi NE 11.5 mph 17.3 mph N/A   Clear
4:35 PM 96.8 °F 97.1 °F 60.8 °F 30% 29.71 in 10.0 mi NNE 13.8 mph 17.3 mph N/A   Clear
4:55 PM 96.8 °F 98.0 °F 62.6 °F 32% 29.70 in 10.0 mi North 9.2 mph - N/A   Clear
5:15 PM 95.0 °F 96.0 °F 62.6 °F 34% 29.70 in 10.0 mi NE 12.7 mph - N/A   Clear
5:35 PM 93.2 °F 94.1 °F 62.6 °F 36% 29.70 in 10.0 mi ENE 8.1 mph - N/A   Clear
5:55 PM 93.2 °F 94.1 °F 62.6 °F 36% 29.70 in 10.0 mi ENE 8.1 mph - N/A   Clear
6:15 PM 93.2 °F 94.1 °F 62.6 °F 36% 29.70 in 10.0 mi ENE 8.1 mph - N/A   Clear
6:35 PM 93.2 °F 94.1 °F 62.6 °F 36% 29.70 in 10.0 mi ENE 9.2 mph - N/A   Clear
6:55 PM 93.2 °F 94.1 °F 62.6 °F 36% 29.70 in 10.0 mi NE 6.9 mph - N/A   Clear
7:15 PM 91.4 °F 91.4 °F 60.8 °F 36% 29.70 in 10.0 mi NNE 9.2 mph - N/A   Clear
7:35 PM 91.4 °F 91.4 °F 60.8 °F 36% 29.71 in 10.0 mi NE 5.8 mph - N/A   Clear
7:55 PM 89.6 °F 89.5 °F 60.8 °F 38% 29.70 in 10.0 mi NE 4.6 mph - N/A   Clear
8:15 PM 87.8 °F 87.6 °F 60.8 °F 40% 29.71 in 10.0 mi NNE 3.5 mph - N/A   Clear
8:35 PM 86.0 °F 86.6 °F 62.6 °F 45% 29.71 in 10.0 mi North 4.6 mph - N/A   Clear
8:55 PM 84.2 °F 84.4 °F 60.8 °F 45% 29.71 in 10.0 mi North 4.6 mph - N/A   Clear
9:15 PM 84.2 °F 84.4 °F 60.8 °F 45% 29.71 in 10.0 mi North 6.9 mph - N/A   Clear
9:35 PM 84.2 °F 84.4 °F 60.8 °F 45% 29.72 in 10.0 mi North 6.9 mph - N/A   Clear
9:55 PM 82.4 °F 83.4 °F 62.6 °F 51% 29.73 in 10.0 mi North 6.9 mph - N/A   Clear
10:15 PM 82.4 °F 83.4 °F 62.6 °F 51% 29.73 in 10.0 mi North 5.8 mph - N/A   Clear
10:35 PM 80.6 °F 81.8 °F 62.6 °F 54% 29.74 in 10.0 mi Calm Calm - N/A   Clear
10:55 PM 78.8 °F - 62.6 °F 57% 29.75 in 10.0 mi Calm Calm - N/A   Clear
11:35 PM 78.8 °F - 62.6 °F 57% 29.75 in 10.0 mi North 3.5 mph - N/A   Clear
11:55 PM 77.0 °F - 62.6 °F 61% 29.75 in 10.0 mi North 5.8 mph - N/A   Clear